Regional Weather Roundup
Issued by NWS Kansas City/Pleasant Hill, MO

Home | Current Version | Previous Version | Graphics & Text | Print | Product List | Glossary Off
Versions: 1 2 3 4 5 6 7 8 9 10 11 12 13 14 15 16 17 18 19 20 21 22 23 24 25 26 27

000
ASUS43 KEAX 251010
RWREAX

WEATHER ROUNDUP FOR EASTERN KANSAS AND NORTHWEST MISSOURI
NATIONAL WEATHER SERVICE KANSAS CITY/PLEASANT HILL MO
500 AM CDT THU MAY 25 2017

KSZ040-057-103>105-MOZ028-029-037-043-251100-
...KANSAS CITY METROPOLITAN AREA...

CITY           SKY/WX    TMP DP  RH WIND       PRES   REMARKS
K.C. INTL      CLEAR     48  45  89 SE7       29.69S
K.C. DOWNTOWN  CLEAR     50  49  96 CALM      29.69S
LEES SUMMIT    CLEAR     50  47  89 CALM      29.70F
OLATHE - IXD   CLEAR     46  45  96 S5        29.70S
OLATHE - OJC   CLEAR     47  47 100 S3        29.70S
LAWRENCE       CLEAR     45  45 100 E5        29.69S

$$

MOZ001>008-011>017-020>025-030>033-038>040-044>046-053-054-251100-
...NORTHERN AND CENTRAL MISSOURI...

CITY           SKY/WX    TMP DP  RH WIND       PRES   REMARKS
ST. JOSEPH     FOG       44  44 100 CALM      29.69S VSB 1/4
WARRENSBURG    CLEAR     45  45 100 SE3       29.70S
WHITEMAN AFB   CLEAR     46  46 100 S3        29.70R
CLINTON        CLEAR     45  45 100 CALM      29.71S FOG
SEDALIA        CLEAR     50  50 100 SW7       29.72R
WARSAW         NOT AVBL
CHILLICOTHE      N/A     45  43  93 CALM      29.71R
KIRKSVILLE     FOG       43  42  97 NW3       29.70R VSB 1/4

$$

MOZ041-047>049-056>058-063>065-088>090-097-251100-
...EASTERN AND SOUTHERN MISSOURI...

CITY           SKY/WX    TMP DP  RH WIND       PRES   REMARKS
ST. LOUIS INTL PTCLDY    56  51  84 W9        29.65R
SPIRIT OF STL  CLEAR     51  51 100 SW6       29.66R
COLUMBIA       CLEAR     50  49  96 W7        29.70R
JEFFERSON CITY CLEAR     51  48  89 NW3       29.70R
ROLLA          CLEAR     47  46  97 CALM      29.69R
OSAGE BEACH    MOCLDY    46  45  93 CALM      29.73R FOG
SPRINGFIELD    CLEAR     48  46  93 CALM      29.72S
BRANSON        CLEAR     48  48 100 CALM      29.74
JOPLIN         CLEAR     48  47  96 S6        29.73R
WEST PLAINS    CLEAR     46  45  96 W6        29.73R

$$

IAZ060-094-KSZ022-034>040-054-083-096-NEZ052-066-093-251100-
...KANSAS...SOUTHEAST NEBRASKA AND IOWA...

CITY           SKY/WX    TMP DP  RH WIND       PRES   REMARKS
TOPEKA         CLEAR     47  47 100 E5        29.68S
MANHATTAN      CLEAR     44  43  96 CALM      29.66S
EMPORIA        PTCLDY    46  44  93 S8        29.68R
CHANUTE        CLEAR     46  45  96 SE6       29.69S
WICHITA        CLEAR     51  46  83 SE8       29.65F
OMAHA          CLEAR     50  44  80 SE7       29.65S
LINCOLN        CLEAR     46  43  89 S7        29.65S
FALLS CITY     CLEAR     48  46  93 SE5       29.67S
LAMONI         CLEAR     47  46  97 CALM      29.69S
DES MOINES     PTCLDY    47  44  90 CALM      29.69R

$$





USA.gov is the U.S. government's official web portal to all federal, state and local government web resources and services.